Weather History for KCVX - October, 2012

Change the Weather History Date:

Saturday, October 27, 2012

  Actual Average Record
Temperature  
Mean Temperature 42 °F -  
Max Temperature 44 °F 56 °F 55 °F (2010)
Min Temperature 41 °F 44 °F 32 °F (2001)
Degree Days  
Heating Degree Days 22    
Moisture  
Dew Point 29 °F    
Average Humidity 59    
Maximum Humidity 71    
Minimum Humidity 50    
Precipitation  
Precipitation 0.00 in - - ()
Sea Level Pressure  
Sea Level Pressure 30.30 in    
Wind  
Wind Speed 6 mph (North)    
Max Wind Speed 12 mph    
Max Gust Speed 16 mph    
Visibility 10 miles    
Events Rain    
Averages and records for this station are not official NWS values.
T = Trace of Precipitation, MM = Missing Value Source: NWS Daily Summary

Daily Weather History Graph

Daily Weather History Graph

Search for Another Location

Airport or City:

Trip Planner

Search our weather history database for the weather conditions in past years. The results will help you decide how hot, cold, wet, or windy it might be!

Date:

Astronomy

Oct. 27, 2012 Rise Set
Actual Time 8:13 AM EDT 6:35 PM EDT
Civil Twilight 7:43 AM EDT 7:05 PM EDT
Nautical Twilight 7:08 AM EDT 7:40 PM EDT
Astronomical Twilight 6:34 AM EDT 8:14 PM EDT
Moon 5:23 PM EDT (10/27) 6:04 AM EDT (10/27)
Length of Visible Light 11h 22m
Length of Day
10h 21m
Waxing Gibbous, 96% of the Moon is Illuminated
Oct 27
Waxing Gibbous
Oct 29
Full
Nov 6
Last Quarter
Nov 13
New
Nov 20
First Quarter

Hourly Weather History & Observations

Time (EDT) Temp. Windchill Dew Point Humidity Pressure Visibility Wind Dir Wind Speed Gust Speed Precip Events Conditions
12:34 AM 44.2 °F 40.3 °F 32.0 °F 62% 30.30 in 10.0 mi North 6.9 mph - N/A   Overcast
12:53 AM 44.1 °F 39.5 °F 32.0 °F 63% 30.30 in 10.0 mi North 8.1 mph - N/A   Overcast
1:14 AM 44.1 °F 40.1 °F 31.3 °F 61% 30.30 in 10.0 mi NNW 6.9 mph - N/A   Overcast
1:34 AM 44.1 °F 39.0 °F 31.1 °F 60% 30.30 in 10.0 mi North 9.2 mph - N/A   Overcast
1:53 AM 43.9 °F 40.5 °F 30.7 °F 60% 30.30 in 10.0 mi NNW 5.8 mph - N/A   Overcast
2:14 AM 43.7 °F 40.3 °F 30.6 °F 60% 30.29 in 10.0 mi North 5.8 mph - N/A   Overcast
2:33 AM 43.7 °F 39.7 °F 30.2 °F 59% 30.29 in 10.0 mi North 6.9 mph - N/A   Overcast
2:54 AM 43.7 °F 39.7 °F 29.8 °F 58% 30.29 in 10.0 mi NNW 6.9 mph - N/A   Overcast
3:13 AM 43.3 °F 39.2 °F 29.5 °F 58% 30.29 in 10.0 mi North 6.9 mph - N/A   Overcast
3:34 AM 43.0 °F 39.5 °F 29.7 °F 59% 30.28 in 10.0 mi NNW 5.8 mph - N/A   Overcast
3:54 AM 43.0 °F 38.2 °F 29.3 °F 59% 30.28 in 10.0 mi North 8.1 mph - N/A   Overcast
4:34 AM 42.8 °F 40.1 °F 29.3 °F 59% 30.28 in 10.0 mi North 4.6 mph - N/A   Overcast
4:54 AM 42.8 °F 39.3 °F 28.6 °F 57% 30.28 in 10.0 mi North 5.8 mph - N/A   Overcast
5:14 AM 42.8 °F - 29.1 °F 58% 30.29 in 10.0 mi Calm Calm - N/A   Overcast
5:34 AM 42.8 °F 40.1 °F 28.8 °F 58% 30.29 in 10.0 mi NNW 4.6 mph - N/A   Overcast
5:54 AM 42.6 °F 40.9 °F 29.3 °F 59% 30.29 in 10.0 mi North 3.5 mph - N/A   Overcast
6:14 AM 42.8 °F 41.1 °F 28.6 °F 57% 30.30 in 10.0 mi North 3.5 mph - N/A   Overcast
6:34 AM 42.8 °F 40.1 °F 28.4 °F 57% 30.29 in 10.0 mi NNW 4.6 mph - N/A   Overcast
6:53 AM 42.4 °F - 29.3 °F 60% 30.30 in 10.0 mi Calm Calm - N/A   Overcast
7:14 AM 42.4 °F - 28.9 °F 59% 30.30 in 10.0 mi Calm Calm - N/A   Overcast
7:54 AM 42.1 °F 40.2 °F 30.2 °F 63% 30.31 in 10.0 mi East 3.5 mph - N/A   Overcast
8:13 AM 41.9 °F 39.0 °F 30.0 °F 63% 30.31 in 10.0 mi East 4.6 mph - N/A   Overcast
8:34 AM 41.9 °F 39.0 °F 29.8 °F 62% 30.32 in 10.0 mi East 4.6 mph - N/A   Overcast
8:54 AM 41.9 °F 39.0 °F 28.8 °F 60% 30.32 in 10.0 mi East 4.6 mph - N/A   Overcast
9:14 AM 42.4 °F 39.6 °F 28.4 °F 58% 30.32 in 10.0 mi East 4.6 mph - N/A   Overcast
9:34 AM 42.8 °F 39.3 °F 28.8 °F 58% 30.32 in 10.0 mi ESE 5.8 mph - N/A   Overcast
10:14 AM 43.2 °F 40.5 °F 28.2 °F 56% 30.32 in 10.0 mi East 4.6 mph - N/A   Overcast
10:34 AM 43.3 °F 41.7 °F 28.2 °F 55% 30.32 in 10.0 mi East 3.5 mph - N/A   Overcast
10:54 AM 43.7 °F - 28.4 °F 55% 30.32 in 10.0 mi Calm Calm - N/A   Overcast
11:34 AM 43.3 °F - 28.0 °F 55% 30.31 in 10.0 mi Calm Calm - N/A   Overcast
11:54 AM 44.1 °F - 30.0 °F 58% 30.31 in 10.0 mi Calm Calm - N/A   Overcast
12:14 PM 44.1 °F - 29.8 °F 57% 30.31 in 10.0 mi Calm Calm - N/A   Overcast
12:34 PM 44.4 °F 41.2 °F 31.1 °F 60% 30.31 in 10.0 mi North 5.8 mph - N/A   Overcast
12:54 PM 44.4 °F 42.0 °F 30.6 °F 58% 30.30 in 10.0 mi North 4.6 mph - N/A   Overcast
1:14 PM 44.2 °F 41.8 °F 30.7 °F 59% 30.30 in 10.0 mi NNW 4.6 mph - N/A   Overcast
1:34 PM 43.7 °F 40.3 °F 30.9 °F 61% 30.29 in 10.0 mi NNW 5.8 mph - N/A   Overcast
1:54 PM 43.5 °F 40.1 °F 30.6 °F 60% 30.29 in 10.0 mi NNW 5.8 mph - N/A   Overcast
2:14 PM 43.7 °F 39.7 °F 30.0 °F 59% 30.29 in 10.0 mi North 6.9 mph - N/A   Overcast
2:34 PM 44.2 °F 40.3 °F 29.8 °F 57% 30.28 in 10.0 mi NNW 6.9 mph - N/A   Overcast
2:54 PM 43.7 °F 38.6 °F 30.0 °F 59% 30.28 in 10.0 mi NNW 9.2 mph - N/A   Overcast
3:14 PM 43.0 °F 37.2 °F 29.5 °F 59% 30.28 in 10.0 mi North 10.4 mph - N/A   Overcast
3:33 PM 43.0 °F 37.7 °F 29.8 °F 60% 30.28 in 10.0 mi NNW 9.2 mph - N/A   Overcast
3:54 PM 42.8 °F 37.5 °F 28.6 °F 57% 30.29 in 10.0 mi NNW 9.2 mph - N/A   Overcast
4:14 PM 42.4 °F 37.5 °F 27.5 °F 56% 30.29 in 10.0 mi NNW 8.1 mph - N/A   Overcast
4:34 PM 42.8 °F 39.3 °F 27.9 °F 56% 30.29 in 10.0 mi NW 5.8 mph - N/A   Overcast
4:54 PM 42.3 °F 37.9 °F 27.7 °F 56% 30.30 in 10.0 mi NNW 6.9 mph - N/A   Overcast
5:14 PM 42.3 °F 37.3 °F 27.7 °F 56% 30.30 in 10.0 mi NNW 8.1 mph - N/A   Overcast
5:34 PM 42.3 °F 37.9 °F 27.7 °F 56% 30.30 in 10.0 mi NNW 6.9 mph - N/A   Overcast
5:54 PM 42.1 °F 37.1 °F 27.3 °F 56% 30.30 in 10.0 mi NW 8.1 mph - N/A   Overcast
6:14 PM 42.1 °F 36.6 °F 27.1 °F 55% 30.30 in 10.0 mi NNW 9.2 mph - N/A   Overcast
6:34 PM 42.1 °F 36.6 °F 27.3 °F 56% 30.30 in 10.0 mi WNW 9.2 mph - N/A   Overcast
6:54 PM 42.1 °F 37.1 °F 27.1 °F 55% 30.30 in 10.0 mi NW 8.1 mph - N/A   Overcast
7:14 PM 42.1 °F 36.6 °F 27.5 °F 56% 30.31 in 10.0 mi NW 9.2 mph - N/A   Overcast
7:33 PM 41.9 °F 35.9 °F 27.5 °F 57% 30.30 in 10.0 mi NW 10.4 mph - N/A   Overcast
7:54 PM 42.1 °F 38.4 °F 26.4 °F 54% 30.31 in 10.0 mi NW 5.8 mph - N/A   Overcast
8:14 PM 41.9 °F 36.3 °F 26.1 °F 53% 30.31 in 10.0 mi NW 9.2 mph - N/A   Overcast
8:34 PM 41.7 °F 38.8 °F 24.8 °F 51% 30.30 in 10.0 mi NW 4.6 mph - N/A   Overcast
8:54 PM 41.2 °F 38.2 °F 25.3 °F 53% 30.30 in 10.0 mi WNW 4.6 mph - N/A   Overcast
9:14 PM 41.9 °F 37.5 °F 24.3 °F 50% 30.30 in 10.0 mi NW 6.9 mph - N/A   Overcast
9:33 PM 41.7 °F 38.0 °F 24.1 °F 50% 30.31 in 10.0 mi North 5.8 mph - N/A   Mostly Cloudy
9:54 PM 42.1 °F 35.7 °F 32.4 °F 68% 30.32 in 10.0 mi NNW 11.5 mph - N/A Rain Light Rain
10:13 PM 41.0 °F 35.2 °F 32.4 °F 71% 30.31 in 10.0 mi North 9.2 mph - N/A Rain Light Rain
10:53 PM 41.4 °F 35.2 °F 31.8 °F 69% 30.32 in 10.0 mi NNE 10.4 mph - N/A   Overcast
11:14 PM 41.2 °F 36.6 °F 31.1 °F 67% 30.33 in 10.0 mi NNE 6.9 mph - N/A   Overcast
11:34 PM 41.2 °F 35.0 °F 30.7 °F 66% 30.32 in 10.0 mi NNE 10.4 mph - N/A   Overcast
11:54 PM 41.5 °F 35.0 °F 31.5 °F 67% 30.32 in 10.0 mi NNE 11.5 mph 16.1 mph N/A   Overcast